Probability
0 0 0 0 0 0 0 0 0 0 0 0 0 0 0 0 0 0 0 0 0 0 0 0 0 0 0 0 0 0 0 0 0 0 0 0 0 0 0 0 0 0 0
0 0 0 0 0 0 0 0 0 0 0 0 0 0 0 0 0 0 0 0 0 0 0 0 0 0 0 0 0 0 0 0 0 0 0 0 0 0 0 0 0 0 0
0 0 0 0 0 0 0 0 0 0 0 0 0 0 0 0 0 0 0 0 0 0 0 0 0 0 0 0 0 0 0 0 0 0 0 0 0 0 0 0 0 0 0
0 0 0 0 0 0 0 0 0 0 0 0 0 0 0 0 0 0 0 0 0 0 0 0 0 0 0 0 0 0 0 0 0 0 0 0 0 0 0 0 0 0 0
0 0 0 0 0 1 0 0 0 0 0 0 0 0 0 0 0 0 0 0 0 0 0 0 0 0 0 0 0 0 0 0 0 0 0 0 0 0 0 0 0 0 0
0 0 1 1 2 3 2 0 0 0 0 0 0 0 0 0 0 0 0 1 1 0 0 0 0 0 0 0 0 0 0 0 0 0 0 0 0 0 0 0 0 0 0
2 2 3 3 5 6 3 0 0 0 0 0 0 0 0 0 0 0 1 1 0 0 0 0 0 0 0 0 0 0 0 0 0 0 0 0 0 0 0 0 0 0 0
4 4 5 4 6 7 4 0 0 0 0 0 0 0 0 0 0 0 0 0 0 0 0 0 0 0 0 0 0 0 0 0 0 0 0 0 0 0 0 0 0 0 0
3 4 4 3 4 6 4 1 0 0 0 0 0 0 0 0 0 0 0 0 0 0 0 0 0 0 0 0 0 0 0 0 0 0 0 0 0 0 0 0 0 0 0
1 1 1 1 2 4 4 2 0 0 0 0 0 0 0 0 0 0 0 0 0 0 0 0 0 0 0 0 0 0 0 0 0 0 0 0 0 0 0 0 0 0 0
0 0 0 0 0 1 1 1 0 0 0 0 0 0 0 0 0 0 0 0 3 6 5 1 0 0 0 0 0 0 0 0 0 0 0 0 1 1 1 2 1 0 0
0 0 0 0 0 0 0 0 0 0 0 0 0 0 0 0 0 0 0 1 9 17 12 3 1 0 0 0 0 0 0 0 0 0 0 0 1 1 3 8 8 4 1
0 0 0 0 0 0 0 0 0 0 0 0 0 0 0 0 0 0 0 2 11 17 11 3 2 1 0 0 0 0 0 0 0 0 0 4 8 6 5 15 22 17 10
0 0 0 0 0 0 0 1 0 0 0 0 0 0 0 0 0 0 0 1 5 7 4 1 1 0 0 0 0 0 0 0 0 0 0 8 23 25 17 23 36 37 31
0 0 0 0 0 0 0 0 0 0 0 0 0 0 0 0 0 0 0 0 1 1 0 0 0 0 0 0 0 0 0 0 0 0 0 7 31 52 47 39 50 58 55
0 0 0 0 0 0 0 0 0 0 0 0 0 0 0 0 0 0 0 0 0 0 0 0 0 0 0 0 0 0 0 0 0 1 1 4 26 60 73 65 64 71 73
0 0 0 0 0 0 0 0 0 0 0 0 0 0 0 0 0 0 0 0 0 0 0 0 0 0 0 0 0 0 0 0 1 2 3 4 15 39 67 80 78 77 79
0 0 0 0 0 0 0 0 0 0 0 0 0 0 0 0 0 0 0 0 0 0 0 0 0 0 0 0 0 0 0 0 1 3 5 5 5 12 34 65 81 79 74
0 0 0 0 0 0 0 0 0 0 0 0 0 0 0 0 0 0 0 0 0 0 0 0 0 0 0 0 0 0 0 0 1 3 5 4 2 1 9 30 54 62 57
0 0 0 0 0 0 0 0 0 0 0 0 0 0 0 0 0 0 0 0 0 0 0 0 0 0 0 0 0 0 0 0 0 2 2 2 1 0 1 6 18 26 27
0 0 0 0 0 0 0 0 0 0 0 0 0 0 0 0 0 0 0 0 0 0 0 0 0 0 0 0 0 0 0 0 0 0 0 0 0 0 0 0 1 3 4
0 0 0 0 0 0 0 0 0 0 0 0 0 0 0 0 0 0 0 0 0 0 0 0 0 0 0 0 0 0 0 0 0 0 0 0 0 0 0 0 0 0 0
0 0 0 0 0 0 0 0 0 0 0 0 0 0 0 0 0 0 0 0 0 0 0 0 0 0 0 0 0 0 0 0 0 0 0 0 0 0 0 0 0 0 0
0 0 0 0 0 0 0 0 0 0 0 0 0 0 0 0 0 0 0 0 0 0 0 0 0 0 0 0 0 0 0 0 0 0 0 0 0 0 0 0 0 0 0
0 0 0 0 0 0 0 0 0 0 0 0 0 0 0 0 0 0 0 0 0 0 0 0 0 0 0 0 0 0 0 0 0 0 0 0 0 0 0 0 0 0 0
0 0 0 0 0 0 0 0 0 0 0 0 0 0 0 0 0 0 0 0 0 0 0 0 0 0 0 0 0 0 0 0 0 0 0 0 0 0 0 0 0 0 0
Wind_Speed
3 6 14 14 13 12 11 10 9 7 7 8 7 6 6 5 5 5 5 5 5 4 3 3 3 3 3 3 5 5 6 7 8 7 7 7 8 8 8 8 7 5 8
7 7 14 14 13 12 11 10 9 9 7 7 7 7 6 6 5 5 6 6 6 6 5 5 4 4 3 3 4 4 5 6 6 5 5 5 7 8 9 8 7 5 7
8 9 12 15 14 13 11 10 9 9 8 7 6 6 5 6 5 5 6 7 8 8 7 7 5 4 4 3 4 5 6 7 6 5 4 2 3 7 8 8 8 8 8
10 10 10 15 14 13 12 10 10 9 9 8 7 6 5 4 4 4 4 7 8 8 8 7 4 4 3 3 4 5 6 7 6 5 3 2 3 8 9 9 8 8 9
8 9 11 16 14 13 11 10 10 9 9 8 7 6 6 5 4 5 5 5 6 6 7 6 4 4 4 4 4 5 6 7 6 4 3 3 4 9 10 9 9 9 9
7 6 8 13 12 10 9 9 9 9 9 9 7 7 7 7 6 4 4 4 4 5 6 5 5 5 4 4 5 6 7 7 6 3 2 3 6 12 12 11 10 9 9
5 4 6 10 11 10 9 9 9 9 9 9 8 8 8 8 7 5 4 4 5 6 6 6 6 5 5 5 5 6 7 7 5 3 2 3 6 13 14 13 11 10 9
6 5 4 8 9 10 10 10 9 9 9 8 8 8 8 8 8 7 6 5 6 6 6 6 6 5 5 5 6 6 7 7 6 5 3 4 9 14 15 13 12 10 8
5 4 1 1 3 6 8 9 9 8 8 9 9 8 7 7 7 8 7 8 7 7 6 5 4 5 5 6 6 6 7 8 5 3 3 4 11 15 15 14 12 11 9
7 5 3 3 2 2 4 6 7 7 7 8 8 7 7 7 8 8 6 7 8 8 8 7 6 5 5 5 5 6 7 6 5 4 2 5 13 15 15 15 13 11 10
8 6 4 3 2 3 4 5 6 7 8 8 7 8 7 5 5 5 7 9 9 10 10 10 9 8 6 6 6 7 6 3 4 3 3 7 14 16 16 15 14 12 11
12 10 8 6 5 4 3 0 2 3 4 5 4 5 4 5 4 6 8 12 12 11 11 11 11 10 8 4 5 7 3 5 5 4 4 10 15 17 16 16 15 13 13
12 14 13 10 9 7 4 2 2 2 3 4 5 5 5 4 3 4 3 5 7 9 6 6 6 4 4 4 4 4 5 5 4 4 5 12 16 18 17 17 16 15 15
16 17 15 14 12 11 8 5 3 3 3 3 4 5 4 3 4 3 3 4 3 3 4 4 3 5 6 6 6 6 6 5 5 4 5 13 16 17 17 18 17 16 16
18 18 16 16 16 13 10 8 7 6 5 4 3 3 2 2 3 3 3 3 4 3 4 4 4 5 6 6 6 7 7 7 7 6 5 13 16 16 18 18 19 18 17
15 16 15 17 17 15 13 11 9 8 7 6 5 5 4 2 2 2 3 3 3 3 4 4 4 4 4 4 5 6 7 7 8 8 7 10 16 17 18 19 20 20 19
11 13 16 14 16 16 15 14 11 10 10 9 8 7 6 4 2 2 3 3 4 4 4 4 4 3 3 4 5 5 5 6 7 9 8 6 9 14 16 18 20 21 20
10 12 13 14 14 13 12 12 11 11 11 10 10 9 9 7 5 3 3 4 5 4 4 4 4 3 4 4 4 4 4 4 7 7 7 6 6 7 11 16 18 21 22
9 9 10 11 11 10 9 8 9 10 11 11 11 11 13 12 8 4 3 4 5 4 4 5 4 4 4 4 4 4 4 4 5 6 6 7 8 7 7 11 15 17 20
8 8 8 9 9 9 7 6 6 8 9 9 10 12 17 15 13 7 4 5 4 4 4 4 5 4 4 4 4 3 4 4 4 5 6 6 7 8 8 7 7 9 14
11 12 12 13 12 10 7 7 7 7 8 8 9 13 15 16 17 13 7 5 4 4 5 5 4 4 4 3 2 2 3 4 4 4 4 4 6 7 7 8 6 5 5
14 14 15 15 14 12 8 5 3 3 4 5 6 9 12 15 16 14 13 8 6 5 5 5 4 3 3 3 3 1 2 4 2 2 2 4 5 4 7 8 8 7 5
13 14 15 15 15 14 11 6 5 4 4 5 8 10 13 16 16 15 15 12 7 6 5 6 5 6 4 3 3 4 3 4 2 2 1 1 2 3 4 5 7 7 6
11 11 13 14 15 14 12 7 7 7 6 6 6 8 13 15 16 17 16 13 9 6 6 6 5 4 5 3 2 2 2 3 2 1 2 2 2 1 2 3 5 5 5
10 11 11 13 12 13 11 9 8 7 6 7 9 11 12 13 15 17 17 14 10 6 6 6 5 5 4 5 4 3 2 1 2 2 1 1 2 2 1 3 4 4 5
11 11 12 13 12 11 11 11 10 10 12 14 14 12 12 12 13 16 17 14 10 6 5 6 6 7 5 4 4 3 4 3 3 3 2 1 0 2 2 1 3 4 4
Wind_Direction
174 175 173 168 165 163 162 161 161 157 142 141 145 155 156 160 163 161 158 158 160 165 169 165 152 138 127 120 122 132 134 122 115 111 110 115 116 112 99 87 105 100 100
162 170 174 170 170 171 172 171 168 167 161 157 163 170 176 185 188 189 195 197 194 191 193 196 191 179 174 158 148 152 151 142 138 125 108 112 120 119 113 103 105 110 105
150 171 173 172 173 175 177 176 175 175 175 178 181 182 188 200 205 211 215 215 214 208 208 209 207 202 200 187 173 179 179 169 164 151 126 114 136 131 124 115 110 109 107
159 172 172 174 174 176 178 182 183 183 186 189 190 189 194 205 211 224 241 232 219 213 215 217 212 214 216 211 203 199 196 189 181 165 148 178 186 148 135 125 118 112 110
161 174 176 173 174 177 181 186 190 193 198 202 199 200 207 212 227 242 251 234 206 203 206 204 197 208 215 214 219 217 209 201 199 185 177 203 192 164 148 135 125 118 114
170 175 172 171 173 177 183 191 197 201 208 211 212 216 223 217 223 238 236 195 171 175 181 182 189 201 211 218 226 227 223 214 209 202 212 210 177 170 155 145 138 130 122
154 162 166 173 175 177 186 197 205 209 218 216 223 221 231 230 224 225 222 193 181 186 187 187 194 202 210 220 226 227 230 228 215 218 214 196 186 170 158 155 152 145 136
133 143 160 185 183 184 190 199 208 213 221 225 234 229 234 241 228 225 227 223 208 206 204 200 204 213 219 227 230 228 227 227 224 229 215 195 200 176 165 165 164 161 155
100 97 75 252 219 208 207 210 212 216 223 229 240 240 233 250 247 239 235 227 221 216 212 211 219 230 237 242 241 237 232 228 225 223 226 197 203 185 174 172 173 174 172
56 54 19 319 297 279 258 244 229 224 228 232 242 241 228 238 251 250 244 228 221 221 216 209 213 233 244 248 252 249 241 236 232 228 225 210 204 190 181 179 180 182 182
45 41 40 30 333 272 253 241 237 235 236 236 239 234 229 232 238 244 242 231 223 217 212 209 211 221 230 240 247 251 248 230 232 234 217 218 209 197 188 184 183 186 185
16 12 13 18 19 8 350 242 248 259 261 250 238 234 230 225 229 237 242 235 225 211 206 212 219 224 227 234 245 248 235 227 223 230 219 222 214 207 196 189 186 188 187
11 12 6 5 8 14 13 17 332 302 279 262 254 247 245 242 241 245 248 240 224 213 213 229 237 231 227 230 240 242 235 229 223 226 223 220 213 212 204 194 189 190 190
19 14 9 12 11 6 2 354 342 330 311 295 270 260 248 243 242 235 224 219 210 212 218 225 230 237 234 233 235 239 237 234 229 226 226 218 211 211 207 199 193 194 195
21 14 11 15 13 8 6 358 356 348 341 323 306 287 244 223 234 234 225 215 217 217 219 224 228 237 239 241 241 238 234 230 231 227 224 218 212 209 208 204 200 200 200
17 12 8 17 12 10 11 4 357 351 342 336 331 318 307 262 237 243 239 218 214 213 216 220 225 232 240 240 245 243 239 234 232 229 219 213 211 208 210 209 207 206 205
14 13 12 14 12 11 9 4 360 355 351 346 337 326 317 302 274 246 245 241 230 221 221 227 239 244 256 259 259 257 247 235 229 224 214 204 207 211 213 213 212 212 210
16 14 11 11 10 10 8 3 360 355 354 349 340 331 319 304 283 250 236 244 245 237 229 229 233 244 257 261 262 263 258 249 235 221 207 198 199 206 216 218 214 215 216
6 4 3 2 3 1 1 1 359 357 356 349 345 341 333 319 297 261 239 245 248 241 235 234 226 217 240 255 257 256 256 254 245 230 215 204 202 204 205 219 219 218 218
353 352 352 352 352 350 349 353 358 359 356 350 347 345 340 333 319 293 259 253 249 241 240 229 225 217 220 234 253 263 259 253 246 236 226 213 207 206 203 206 214 225 226
353 353 351 348 344 342 342 348 353 355 349 344 342 340 337 335 331 317 289 261 240 231 231 221 209 211 217 202 212 283 287 263 246 240 230 219 211 206 199 203 204 207 222
353 352 351 345 336 330 323 316 314 314 312 316 321 333 334 333 327 323 305 277 242 225 222 212 193 184 202 185 173 199 298 318 304 278 238 222 223 211 206 204 200 200 200
357 354 351 344 339 332 325 320 320 315 314 338 343 339 334 329 324 317 311 290 255 218 209 205 190 176 187 201 181 169 189 233 295 321 328 275 238 213 209 199 195 193 188
354 351 347 344 341 338 336 339 341 346 338 331 327 324 325 324 321 318 314 301 266 226 203 202 190 176 163 177 184 182 186 177 185 285 337 359 7 164 167 159 159 155 155
347 346 342 340 338 340 346 348 345 341 330 325 327 324 322 320 317 316 312 307 281 242 206 191 177 172 167 166 168 162 158 143 144 156 206 346 11 12 57 123 126 130 135
345 344 343 342 341 348 354 353 347 342 336 333 331 325 322 317 313 312 313 306 292 259 221 194 176 169 168 163 161 159 160 159 171 154 166 191 227 339 359 67 123 131 134